Wind_Speed
53 52 50 48 45 41 37 34 31 26 20 18 19 24 32 46 59 70 78 85 91 100 109 117 121 122 122 120 117 113 110 106 102 98 94 87 80 74
52 51 49 47 44 40 35 32 30 27 22 18 18 21 26 36 49 60 69 78 84 93 102 111 118 121 122 121 119 116 112 108 104 101 96 91 85 78
52 50 49 46 43 39 34 31 28 26 23 19 18 19 23 30 40 52 61 70 78 85 95 105 114 120 121 121 120 118 114 110 107 103 99 95 89 81
51 49 48 46 43 39 34 30 27 25 23 19 17 17 21 26 33 44 54 63 71 78 87 97 108 117 120 121 120 119 116 113 109 105 101 97 92 86
51 49 47 45 42 39 35 30 27 24 22 19 17 17 19 23 29 37 47 55 63 71 80 90 101 112 119 121 121 120 118 114 110 106 104 100 95 90
51 49 48 45 42 38 34 30 26 24 21 19 17 17 18 21 27 33 41 49 57 65 73 82 94 105 115 119 120 120 118 116 113 109 106 102 97 92
51 49 47 46 42 38 34 30 27 24 21 19 17 16 17 20 25 31 37 44 51 58 66 76 86 98 109 116 119 120 119 117 114 110 107 104 99 95
51 49 47 45 42 38 34 31 27 24 21 18 17 16 17 20 23 28 34 39 45 53 60 69 79 90 102 112 118 119 119 118 115 112 108 105 101 97
52 50 48 45 41 37 33 30 27 23 20 18 17 17 17 19 22 27 31 36 41 48 54 62 73 82 95 106 114 118 118 118 116 113 109 105 102 98
52 51 48 45 41 37 33 29 27 23 20 17 17 16 16 18 21 25 29 33 38 43 49 56 66 76 87 99 110 115 117 117 116 113 110 106 102 99
51 51 49 45 41 36 33 30 27 23 20 16 15 15 15 17 20 24 27 31 35 39 45 51 60 69 80 91 103 112 115 116 115 114 111 107 103 100
51 50 49 45 41 36 32 29 26 22 19 15 14 14 15 17 20 23 26 29 33 37 42 48 55 64 72 84 95 107 112 114 115 114 111 108 104 100
51 50 48 44 40 35 32 29 25 21 17 14 13 13 14 16 19 22 25 28 31 35 40 46 52 59 68 78 89 100 108 112 113 113 111 108 105 101
50 49 47 43 39 35 32 29 25 20 16 13 11 12 13 15 18 21 24 27 30 34 39 44 50 56 63 72 82 93 103 109 111 111 110 108 105 101
50 49 47 43 39 35 31 28 24 20 16 12 10 11 12 15 18 21 24 27 29 33 38 43 48 53 60 67 76 87 96 104 109 109 109 108 105 102
49 47 46 43 39 35 31 27 24 20 15 11 9 10 12 14 16 20 23 26 29 33 38 42 46 51 56 63 71 80 91 98 105 107 107 106 104 100
47 46 44 42 39 34 31 27 24 20 15 10 8 8 11 13 15 18 22 24 28 32 37 41 45 49 54 60 67 75 84 92 99 103 104 103 102 99
46 45 43 42 38 34 30 27 23 19 14 9 6 7 10 13 14 17 21 24 28 32 37 41 44 48 52 57 65 71 79 87 93 98 100 100 99 97
45 44 43 41 38 34 30 26 23 18 13 8 4 5 9 12 14 16 20 24 28 32 37 41 43 47 50 54 60 67 73 79 86 92 96 97 96 95
44 43 42 40 37 34 30 26 22 17 12 7 2 4 8 11 14 17 20 23 27 32 36 40 43 46 49 53 58 64 69 73 80 86 91 93 92 90
43 42 42 39 36 33 30 26 21 16 10 5 1 4 9 12 14 17 19 23 28 31 35 39 41 44 47 53 57 61 65 70 75 79 84 88 89 88
42 42 41 39 35 32 29 25 20 15 9 4 1 5 10 13 15 18 21 25 29 32 36 39 41 42 45 51 55 59 64 66 69 73 77 82 85 85
41 40 39 37 34 30 28 24 19 13 8 3 2 6 10 13 16 19 22 26 30 33 36 38 40 42 45 50 54 57 62 66 67 69 74 77 78 79
Wind_Direction
337 337 337 337 335 333 330 327 324 323 316 294 271 252 237 226 221 218 217 216 216 214 213 211 209 208 207 207 207 207 207 207 207 206 206 206 207 209
338 337 338 337 336 333 330 326 322 318 315 301 279 257 241 230 223 219 217 217 216 215 213 212 209 208 207 206 206 206 206 207 206 206 206 206 207 208
339 338 338 337 337 334 329 325 321 316 311 302 285 263 245 233 226 220 217 216 216 215 214 212 210 208 206 206 206 206 206 206 206 206 206 206 207 208
340 339 338 337 337 335 330 325 320 315 308 300 285 266 248 236 228 222 218 217 216 216 215 213 211 208 206 206 205 205 205 205 206 206 206 206 207 208
341 340 339 338 337 335 331 325 319 314 307 298 285 269 251 238 228 222 219 217 217 216 215 214 212 209 207 205 205 205 205 205 205 205 206 206 207 208
341 340 340 339 337 335 332 326 318 312 306 295 283 269 253 239 229 222 218 217 216 216 216 214 212 211 208 206 205 204 204 204 205 205 206 206 207 208
342 341 340 340 338 336 333 328 320 312 304 295 282 269 254 239 229 221 218 217 216 216 215 214 213 211 209 206 205 204 204 204 204 205 205 206 207 208
343 342 341 340 338 336 333 328 322 314 304 293 282 270 257 241 229 221 217 215 215 215 215 214 212 211 210 207 205 204 204 204 204 204 205 206 207 208
343 343 342 340 338 336 333 329 324 316 304 291 279 269 255 240 227 219 215 213 212 213 213 213 212 210 210 208 206 204 204 204 204 204 205 206 207 208
343 343 342 340 338 336 334 330 326 319 308 292 278 264 250 237 226 218 213 211 210 211 211 211 211 210 209 209 206 204 204 203 204 204 204 205 206 207
343 343 343 342 340 337 335 332 327 321 312 295 279 262 247 232 221 215 212 209 207 206 207 207 208 208 208 208 207 205 204 204 204 204 204 205 206 207
344 344 343 343 341 339 336 333 328 322 313 298 279 262 246 231 219 213 210 207 204 202 203 203 204 205 205 206 207 205 204 203 204 204 204 205 206 207
345 345 345 344 342 340 338 335 331 323 314 299 279 262 243 227 217 211 208 204 202 201 200 199 200 201 202 204 205 205 204 203 204 204 204 205 206 207
346 346 346 345 344 343 340 338 334 327 316 300 277 257 238 224 215 209 205 204 202 200 198 195 196 197 199 201 203 203 204 203 203 204 204 205 206 207
346 347 347 347 346 345 343 341 338 332 320 302 279 253 233 221 213 207 204 203 201 199 195 193 192 194 196 198 200 202 203 203 203 204 204 205 206 206
347 347 348 349 348 347 345 343 341 337 326 305 280 250 227 216 210 207 204 203 201 198 193 190 189 189 191 194 197 199 202 202 203 203 204 205 206 207
347 348 349 350 349 348 347 346 344 340 333 313 285 245 222 212 207 203 201 200 199 195 190 187 187 187 189 192 194 196 199 201 202 203 204 204 206 206
348 349 350 350 350 350 349 348 346 342 338 324 286 236 213 205 201 198 196 195 193 191 188 185 184 185 187 189 191 193 197 199 201 202 203 204 205 206
348 349 350 350 351 351 350 349 348 346 342 333 293 222 202 196 193 192 191 190 190 188 185 183 182 182 183 185 187 189 192 196 199 201 202 204 205 205
349 350 350 350 351 351 351 351 350 349 347 340 304 208 192 187 185 184 185 185 185 185 183 181 179 179 180 182 184 186 188 192 196 199 201 202 203 204
349 350 350 351 351 352 353 352 352 352 352 348 327 185 180 178 178 177 178 178 179 180 180 180 179 178 178 179 180 182 184 188 192 197 200 202 203 204
349 350 351 351 352 353 354 354 355 356 358 1 113 166 171 173 174 173 172 172 172 173 175 177 178 178 179 179 179 179 181 184 188 193 197 201 202 203
349 350 351 352 353 354 355 357 358 2 7 25 130 158 165 168 170 169 167 167 169 170 171 174 175 175 177 179 179 178 179 181 184 189 193 197 200 202
Height
5378 5365 5353 5340 5328 5317 5307 5298 5291 5286 5283 5279 5276 5275 5276 5282 5291 5303 5318 5333 5349 5367 5387 5410 5434 5459 5484 5508 5532 5555 5577 5598 5618 5637 5655 5671 5685 5698
5373 5361 5348 5336 5325 5315 5305 5297 5289 5283 5279 5277 5273 5272 5273 5276 5283 5294 5306 5320 5335 5352 5370 5391 5414 5439 5464 5489 5514 5538 5561 5582 5603 5622 5641 5658 5673 5686
5368 5356 5344 5332 5321 5311 5303 5295 5288 5281 5277 5275 5272 5270 5270 5273 5278 5286 5297 5309 5323 5338 5355 5374 5397 5421 5446 5471 5496 5520 5543 5566 5587 5607 5626 5644 5660 5675
5364 5351 5340 5328 5318 5308 5299 5292 5285 5279 5274 5271 5269 5267 5268 5269 5273 5280 5289 5300 5313 5326 5342 5359 5380 5404 5428 5454 5478 5503 5527 5550 5572 5593 5614 5633 5649 5662
5359 5347 5336 5324 5314 5304 5295 5288 5282 5276 5271 5268 5266 5264 5264 5266 5269 5275 5283 5292 5304 5316 5330 5346 5366 5387 5411 5436 5461 5486 5511 5537 5561 5581 5598 5617 5634 5651
5355 5342 5331 5320 5310 5300 5292 5284 5278 5272 5268 5264 5262 5261 5261 5262 5265 5270 5277 5285 5295 5306 5319 5335 5353 5373 5396 5421 5449 5474 5498 5519 5542 5564 5585 5604 5622 5639
5351 5338 5327 5315 5305 5295 5287 5280 5274 5268 5264 5261 5259 5257 5257 5258 5260 5265 5271 5279 5288 5298 5310 5325 5342 5363 5383 5407 5431 5455 5481 5505 5528 5550 5571 5591 5609 5627
5346 5334 5322 5311 5301 5291 5283 5275 5269 5264 5260 5257 5254 5253 5253 5254 5256 5260 5266 5273 5282 5292 5303 5316 5331 5350 5370 5393 5417 5442 5466 5490 5514 5536 5558 5578 5597 5615
5341 5329 5318 5307 5296 5287 5279 5271 5265 5259 5256 5253 5251 5249 5249 5250 5252 5256 5261 5267 5275 5284 5295 5308 5322 5340 5359 5381 5404 5428 5453 5477 5500 5523 5545 5566 5585 5603
5337 5325 5313 5302 5291 5282 5274 5267 5261 5255 5251 5248 5246 5245 5245 5246 5248 5252 5256 5262 5269 5278 5288 5301 5314 5331 5349 5370 5392 5416 5440 5464 5488 5511 5533 5554 5573 5592
5333 5321 5309 5298 5287 5278 5270 5263 5257 5251 5247 5244 5242 5241 5241 5242 5244 5248 5253 5259 5265 5273 5282 5294 5307 5322 5340 5360 5381 5404 5428 5452 5475 5498 5521 5542 5562 5580
5330 5317 5304 5293 5283 5273 5266 5259 5253 5248 5243 5240 5239 5238 5238 5239 5241 5245 5249 5255 5261 5269 5277 5288 5300 5314 5331 5349 5370 5392 5416 5440 5463 5486 5509 5530 5549 5568
5325 5313 5301 5289 5279 5270 5262 5255 5249 5244 5240 5237 5236 5235 5235 5237 5239 5242 5247 5252 5258 5264 5273 5282 5293 5306 5322 5340 5360 5382 5405 5428 5451 5475 5497 5518 5538 5557
5321 5309 5297 5286 5276 5267 5259 5252 5245 5240 5237 5234 5233 5232 5233 5234 5237 5240 5244 5249 5255 5261 5268 5278 5289 5301 5316 5332 5352 5372 5395 5418 5441 5464 5486 5507 5527 5546
5317 5305 5294 5283 5273 5264 5256 5249 5243 5238 5234 5231 5230 5230 5230 5232 5234 5238 5242 5246 5252 5258 5265 5274 5284 5297 5310 5326 5344 5364 5385 5408 5430 5453 5475 5496 5517 5536
5314 5302 5291 5280 5270 5262 5254 5247 5241 5235 5231 5229 5227 5227 5228 5230 5233 5236 5240 5244 5249 5255 5263 5271 5281 5293 5306 5320 5337 5356 5377 5398 5421 5443 5465 5487 5507 5527
5311 5300 5289 5279 5269 5260 5252 5245 5239 5234 5229 5227 5225 5225 5226 5228 5231 5234 5238 5242 5248 5254 5261 5270 5280 5291 5303 5316 5332 5350 5369 5391 5413 5435 5456 5477 5498 5519
5308 5298 5287 5277 5268 5259 5251 5244 5238 5232 5228 5225 5224 5224 5225 5227 5230 5233 5237 5242 5247 5253 5261 5270 5279 5290 5302 5315 5329 5346 5363 5385 5406 5427 5449 5470 5490 5510
5306 5295 5286 5276 5266 5258 5250 5243 5237 5232 5228 5225 5224 5224 5225 5227 5230 5233 5237 5242 5247 5253 5261 5269 5279 5289 5301 5314 5327 5342 5360 5379 5400 5420 5441 5463 5485 5505
5304 5294 5284 5274 5265 5257 5249 5242 5236 5231 5227 5225 5224 5224 5225 5228 5231 5234 5238 5243 5248 5255 5262 5271 5280 5290 5301 5313 5326 5341 5357 5375 5395 5415 5435 5456 5478 5497
5302 5292 5282 5273 5264 5256 5248 5241 5236 5231 5228 5225 5225 5225 5226 5229 5232 5235 5239 5244 5250 5257 5264 5272 5281 5291 5301 5313 5326 5340 5355 5371 5390 5410 5429 5449 5468 5486
5301 5291 5281 5272 5263 5255 5248 5241 5236 5231 5228 5226 5226 5227 5228 5231 5234 5237 5242 5247 5253 5260 5267 5275 5283 5293 5303 5314 5326 5339 5354 5370 5387 5405 5425 5445 5462 5481
5299 5289 5280 5271 5262 5254 5248 5241 5236 5232 5229 5228 5228 5229 5231 5233 5236 5240 5245 5250 5256 5263 5270 5278 5286 5295 5305 5315 5327 5339 5353 5369 5385 5402 5420 5439 5459 5480